CAPE
0 0 0 0 0 0 0 0 0 0 0 0 0 0 5 25 31 51 167 117 12 11 97 207 274 789 1097 1315 1163 1468 1461 1465
0 0 0 0 0 0 0 0 0 0 0 0 0 0 10 26 20 87 179 103 14 15 135 298 270 785 1148 1492 1411 1610 1758 1510
0 0 0 0 0 0 0 0 0 0 0 0 0 0 0 0 27 86 300 187 94 103 143 242 395 798 1326 1531 1486 1712 1944 1875
0 0 0 0 0 0 0 0 0 0 0 0 0 0 0 11 87 142 311 259 156 153 212 183 563 829 1270 1794 1682 1745 2007 2061
0 0 0 0 0 0 0 0 0 0 0 0 0 0 0 29 78 195 343 253 70 70 129 341 589 747 1288 1689 2002 2010 2111 2126
0 0 0 0 0 0 0 0 0 0 0 0 0 0 0 15 92 108 101 127 70 81 176 377 667 777 1268 1464 2165 2237 2363 2239
0 0 0 0 0 0 0 0 0 0 0 0 0 0 0 0 11 152 114 45 46 15 203 427 812 882 1177 1567 1963 2309 2442 2596
0 0 0 0 0 0 0 0 0 0 0 0 0 0 0 0 0 15 103 86 4 77 277 345 822 1001 1095 1437 2207 2380 2614 2666
0 0 0 0 0 0 0 0 0 0 0 0 0 0 0 0 0 0 60 7 2 217 299 491 845 1044 1105 1507 2044 2606 2683 2879
0 0 0 0 0 0 0 0 0 0 0 0 0 0 0 0 0 0 21 9 164 354 461 680 873 1108 1199 1404 1820 2533 2698 2852
0 0 0 0 0 0 0 0 0 0 0 0 0 0 0 0 0 0 0 0 6 602 506 604 857 1139 1242 1376 1765 1975 2500 2686
0 0 0 0 0 1 0 0 189 0 0 0 0 0 0 0 2 0 0 0 37 256 1085 800 829 861 1114 1326 1596 1861 2062 2461
0 0 0 0 0 40 8 0 231 73 5 0 0 0 56 203 28 400 0 0 0 0 581 1517 978 794 871 1072 1346 1652 1942 2042
35 18 13 25 42 0 31 655 194 62 23 0 0 0 0 76 101 576 487 374 0 0 0 238 1482 1234 1037 977 1098 1432 1630 1787
42 4 381 61 1059 715 1260 1272 1162 910 743 918 1347 1858 1984 2293 1990 722 1646 1947 2052 239 0 37 961 1465 1257 1209 1163 1313 1432 1687
3 39 810 259 1146 874 1041 1013 969 861 894 1049 1487 1993 2112 2219 2394 2530 2687 2896 2986 2814 2461 2418 1908 1850 1549 1514 1931 1995 2236 3191
118 6 378 618 524 614 628 631 618 1036 1094 1278 1704 2066 2073 2046 2059 2131 2392 2754 3107 3301 3204 3040 3118 3076 3001 2524 3235 3165 2996 2832
81 70 115 340 439 387 285 104 212 383 900 1281 1543 1730 1917 1771 1588 1465 1444 1583 1916 1994 2461 2352 2838 3110 3245 2963 2725 2954 3157 2857
113 114 125 75 17 95 137 328 100 129 60 523 969 1135 1242 1182 1091 1088 1059 871 613 876 673 475 965 952 3342 3135 2979 3063 2853 2885
CIN
0 0 0 0 0 0 0 0 0 0 0 0 0 0 -162 -88 -67 -66 -101 -107 -100 -223 -325 -342 -373 -472 -452 -406 -343 -296 -274 -233
0 0 0 0 0 0 0 0 0 0 0 0 0 0 -110 -95 -73 -92 -52 -54 -81 -85 -372 -391 -342 -462 -469 -425 -376 -358 -283 -293
0 0 0 0 0 0 0 0 0 0 0 0 0 0 0 0 -206 -122 -66 -62 -61 -92 -86 -441 -369 -456 -463 -441 -372 -338 -299 -270
0 0 0 0 0 0 0 0 0 0 0 0 0 0 0 -123 -101 -81 -67 -50 -49 -134 -98 -335 -379 -453 -447 -461 -400 -372 -332 -277
0 0 0 0 0 0 0 0 0 0 0 0 0 0 0 -198 -118 -80 -41 -40 -12 -38 -113 -50 -401 -434 -444 -476 -433 -379 -325 -297
0 0 0 0 0 0 0 0 0 0 0 0 0 0 0 -55 -55 -18 -10 -7 -12 -16 -29 -66 -404 -397 -460 -499 -436 -400 -336 -324
0 0 0 0 0 0 0 0 0 0 0 0 0 0 0 0 -21 -20 -11 -7 -121 -154 -153 -324 -374 -388 -447 -476 -471 -420 -362 -329
0 0 0 0 0 0 0 0 0 0 0 0 0 0 0 0 0 -31 -26 -21 -15 -193 -147 -128 -344 -357 -411 -438 -471 -421 -350 -358
0 0 0 0 0 0 0 0 0 0 0 0 0 0 0 0 -5 0 -14 -11 -88 -137 -87 -196 -321 -376 -398 -454 -482 -433 -387 -328
0 0 0 0 0 0 0 0 0 0 0 0 0 0 0 0 0 0 -75 -62 -221 -146 -110 -185 -269 -348 -349 -422 -442 -456 -404 -344
0 0 0 0 0 0 0 0 0 0 0 0 0 0 0 0 0 0 0 0 -61 -239 -115 -179 -220 -264 -315 -364 -416 -419 -421 -396
0 0 0 0 0 -3 0 0 -171 0 0 0 0 0 0 0 -36 0 0 0 -76 -293 -293 -106 -80 -153 -259 -329 -383 -380 -420 -450
0 0 0 0 0 -25 -21 0 -81 -132 -99 0 0 -43 -219 -314 -63 -176 0 0 0 0 -272 -250 -96 -200 -317 -318 -344 -360 -406 -415
-4 0 -3 -73 -87 -6 -98 -218 -78 -96 -102 0 -30 -58 0 -243 -269 -187 -144 -186 0 0 0 -342 -298 -140 -147 -285 -320 -371 -377 -348
-86 -12 -53 -127 -116 -272 -235 -227 -219 -249 -246 -278 -278 -278 -231 -264 -354 -481 -412 -328 -270 -105 0 -119 -498 -256 -168 -139 -243 -376 -311 -485
-122 -39 0 -144 -31 -102 -91 -140 -165 -220 -268 -267 -207 -172 -176 -184 -195 -239 -232 -172 -222 -303 -461 -512 -459 -272 -241 -473 -355 -517 -446 -313
-131 -23 -13 -20 -67 -85 -64 -47 -56 -125 -143 -165 -151 -138 -119 -95 -85 -92 -91 -85 -109 -146 -153 -274 -426 -401 -388 -463 -448 -392 -317 -260
-41 -23 -33 -20 -20 -71 -90 -35 -27 -151 -98 -79 -83 -81 -69 -49 -28 -28 -37 -73 -55 -62 -104 -122 -63 -126 -309 -345 -320 -316 -228 -178
-23 -4 -31 -133 -116 -91 -111 -91 -176 -153 -125 -91 -91 -64 -53 -42 -43 -57 -69 -65 -73 -50 -61 -91 -17 -11 -133 -88 -46 -136 -142 -62
Wind_Speed
nan nan nan nan nan nan nan nan nan nan nan nan nan nan nan nan nan nan 27 20 nan nan nan 14 21 25 26 23 19 19 20 17
nan nan nan nan nan nan nan nan nan nan nan nan nan nan nan nan nan nan 33 32 nan nan 22 21 19 17 21 22 24 22 22 18
nan nan nan nan nan nan nan nan nan nan nan nan nan nan nan nan nan nan 27 26 nan 25 27 30 28 19 15 22 24 21 20 20
nan nan nan nan nan nan nan nan nan nan nan nan nan nan nan nan nan 24 26 27 20 18 26 25 22 19 19 19 18 20 20 21
nan nan nan nan nan nan nan nan nan nan nan nan nan nan nan nan nan 14 14 23 nan nan 17 21 20 17 18 16 18 19 22 20
nan nan nan nan nan nan nan nan nan nan nan nan nan nan nan nan nan 19 31 25 nan nan 12 21 22 22 17 19 17 22 24 22
nan nan nan nan nan nan nan nan nan nan nan nan nan nan nan nan nan 23 29 nan nan nan 13 20 26 23 17 18 19 21 26 29
nan nan nan nan nan nan nan nan nan nan nan nan nan nan nan nan nan nan 16 nan nan nan 21 22 25 23 18 22 20 25 25 26
nan nan nan nan nan nan nan nan nan nan nan nan nan nan nan nan nan nan nan nan nan 32 31 24 24 23 24 24 31 32 30 24
nan nan nan nan nan nan nan nan nan nan nan nan nan nan nan nan nan nan nan nan 31 30 29 27 27 27 28 34 28 25 25 26
nan nan nan nan nan nan nan nan nan nan nan nan nan nan nan nan nan nan nan nan nan 46 35 31 35 35 34 38 28 31 28 27
nan nan nan nan nan nan nan nan 61 nan nan nan nan nan nan nan nan nan nan nan nan 57 53 44 30 42 47 37 32 32 25 28
nan nan nan nan nan nan nan nan 52 nan nan nan nan nan nan 32 nan 48 nan nan nan nan 60 50 41 50 41 38 41 27 23 27
nan nan nan nan nan nan nan 56 58 nan nan nan nan nan nan nan 31 36 50 48 nan nan nan 52 56 64 54 46 31 36 31 34
nan nan 58 nan 51 56 62 61 59 63 64 62 59 56 56 50 47 41 43 45 56 66 nan nan 58 53 58 46 50 51 46 42
nan nan 56 78 83 64 65 74 72 73 72 71 61 56 54 54 57 56 59 58 54 53 58 59 59 55 53 58 57 51 45 43
63 nan 69 81 73 74 72 69 80 79 75 69 62 57 49 55 62 57 56 59 63 61 54 50 53 57 58 66 69 69 50 50
nan nan 59 65 70 78 76 77 77 72 69 68 65 63 57 62 55 59 62 56 58 59 56 54 62 46 53 59 64 75 73 84
64 52 43 nan nan nan 65 64 61 61 nan 63 56 71 78 58 57 54 54 56 57 60 68 56 34 50 61 61 62 65 75 79
Wind_Direction
nan nan nan nan nan nan nan nan nan nan nan nan nan nan nan nan nan nan 343 347 nan nan nan 5 10 354 342 333 339 336 327 312
nan nan nan nan nan nan nan nan nan nan nan nan nan nan nan nan nan nan 339 343 nan nan 352 356 22 359 338 339 345 345 346 335
nan nan nan nan nan nan nan nan nan nan nan nan nan nan nan nan nan nan 320 330 nan 338 329 326 332 350 336 328 335 339 338 343
nan nan nan nan nan nan nan nan nan nan nan nan nan nan nan nan nan 326 333 329 316 312 315 308 333 333 339 324 329 339 335 342
nan nan nan nan nan nan nan nan nan nan nan nan nan nan nan nan nan 273 280 260 nan nan 293 315 328 325 330 322 328 328 329 337
nan nan nan nan nan nan nan nan nan nan nan nan nan nan nan nan nan 280 260 242 nan nan 275 301 309 316 330 320 313 315 322 332
nan nan nan nan nan nan nan nan nan nan nan nan nan nan nan nan nan 258 286 nan nan nan 276 273 293 301 316 308 311 313 324 326
nan nan nan nan nan nan nan nan nan nan nan nan nan nan nan nan nan nan 258 nan nan nan 309 277 285 294 299 301 311 305 315 329
nan nan nan nan nan nan nan nan nan nan nan nan nan nan nan nan nan nan nan nan nan 306 306 282 267 281 285 290 290 299 305 308
nan nan nan nan nan nan nan nan nan nan nan nan nan nan nan nan nan nan nan nan 245 269 284 278 283 273 279 280 294 305 304 305
nan nan nan nan nan nan nan nan nan nan nan nan nan nan nan nan nan nan nan nan nan 264 270 271 263 254 266 270 284 293 294 297
nan nan nan nan nan nan nan nan 220 nan nan nan nan nan nan nan nan nan nan nan nan 254 258 266 272 275 264 261 276 282 292 298
nan nan nan nan nan nan nan nan 228 nan nan nan nan nan nan 246 nan 233 nan nan nan nan 263 265 268 270 286 273 274 280 286 270
nan nan nan nan nan nan nan 217 221 nan nan nan nan nan nan nan 251 239 239 240 nan nan nan 260 266 271 276 268 287 277 270 267
nan nan 187 nan 209 216 222 222 223 229 222 229 237 237 241 244 238 239 226 225 236 249 nan nan 252 270 280 281 267 258 268 266
nan nan 185 207 211 212 216 224 223 230 232 231 234 238 245 247 240 238 243 236 229 234 251 255 263 260 262 270 276 265 253 255
196 nan 192 204 210 220 224 224 226 229 232 232 235 236 234 240 241 244 247 240 242 236 235 239 261 261 259 262 268 266 249 245
nan nan 200 210 212 223 226 225 224 228 233 233 233 236 236 241 241 238 241 248 251 257 247 241 230 236 257 255 252 259 259 264
206 217 193 nan nan nan 226 226 231 237 nan 233 233 237 241 232 242 248 249 255 257 263 253 251 221 172 242 247 243 243 249 257